Date_and_time,latitude,longitude,wind_speed,RelWindDirFrom,WindDirFrom,air_pressure,air_temperature,relative_humidity,Temp,platform_speed_wrt_ground,air_pressure_at_mean_sea_level,platform_orientation
2019-09-14 00:00,50.63046,-96.980775,4.2,6.7,319,984.88,16.0,42,14.60,0.0,1011.02,143.4
2019-09-14 00:10,50.63046,-96.980775,3.6,5.4,316,984.95,15.9,43,14.60,0.0,1011.12,143.4
2019-09-14 00:20,50.63046,-96.9807733333333,3.5,4.8,312,985.01,15.7,44,14.58,0.0,1011.21,143.4
2019-09-14 00:30,50.63047,-96.9807783333333,2.5,3.7,324,985.08,15.5,46,14.57,0.0,1011.31,143.4
2019-09-14 00:40,50.6304633333333,-96.9807816666667,2.7,3.4,317,985.20,15.0,49,14.57,0.0,1011.47,143.4
2019-09-14 00:50,50.6304633333333,-96.9807766666667,3.0,3.9,322,985.31,14.5,50,14.55,0.0,1011.62,143.4
2019-09-14 01:00,50.630455,-96.9807516666667,3.5,4.8,324,985.35,14.2,52,14.53,0.0,1011.69,60.8
2019-09-14 01:10,50.63046,-96.9807633333333,3.8,4.9,309,985.41,14.0,53,14.51,0.0,1011.74,60.8
2019-09-14 01:20,50.6304683333333,-96.9807733333333,3.9,5.1,312,985.50,13.9,53,14.51,0.0,1011.83,60.8
2019-09-14 01:30,50.6304633333333,-96.9807733333333,3.5,5.0,313,985.53,13.6,55,14.50,0.0,1011.88,60.8
2019-09-14 01:40,50.6304666666667,-96.9807783333333,3.4,4.7,319,985.60,13.4,56,14.49,0.0,1011.96,60.8
2019-09-14 01:50,50.630465,-96.9807766666667,3.5,5.1,320,985.69,13.0,58,14.48,0.0,1012.07,60.8
2019-09-14 02:00,50.6304666666667,-96.9807766666667,4.0,6.1,303,985.76,12.8,58,14.48,0.0,1012.15,360.0
2019-09-14 02:10,50.630465,-96.9807783333333,3.6,5.0,297,985.85,12.2,61,14.47,0.0,1012.28,360.0
2019-09-14 02:20,50.6304666666667,-96.9807766666667,3.5,4.6,296,985.93,12.1,62,14.47,0.0,1012.38,360.0
2019-09-14 02:30,50.630465,-96.9807783333333,4.0,5.2,281,986.01,11.7,63,14.46,0.0,1012.51,360.0
2019-09-14 02:40,50.630465,-96.9807766666667,4.1,5.0,263,986.06,11.2,66,14.44,0.0,1012.60,360.0
2019-09-14 02:50,50.6304633333333,-96.9807766666667,4.9,5.8,250,986.14,10.6,68,14.44,0.0,1012.73,360.0
2019-09-14 03:00,50.6304616666667,-96.9807766666667,5.0,6.7,242,986.16,9.9,73,14.43,0.0,1012.80,360.0
2019-09-14 03:10,50.6304616666667,-96.9807766666667,5.1,6.7,247,986.16,9.3,76,14.42,0.0,1012.84,360.0
2019-09-14 03:20,50.6304616666667,-96.980775,5.9,7.0,251,986.22,9.3,75,14.42,0.0,1012.90,360.0
2019-09-14 03:30,50.6304616666667,-96.9807766666667,5.3,6.7,248,986.20,9.2,75,14.41,0.0,1012.90,360.0
2019-09-14 03:40,50.6304616666667,-96.9807766666667,5.8,6.9,241,986.30,8.9,77,14.41,0.0,1013.04,360.0
2019-09-14 03:50,50.6304616666667,-96.9807766666667,5.5,7.3,243,986.37,8.9,77,14.41,0.0,1013.11,360.0
2019-09-14 04:00,50.63046,-96.9807766666667,6.1,7.9,246,986.34,9.2,76,14.40,0.0,1013.10,293.6
2019-09-14 04:10,50.63046,-96.9807766666667,5.8,7.3,246,986.33,9.2,75,14.40,0.0,1013.10,293.6
2019-09-14 04:20,50.63046,-96.9807766666667,6.2,7.6,253,986.30,9.2,75,14.39,0.0,1013.08,293.6
2019-09-14 04:30,50.63046,-96.9807766666667,5.1,6.6,255,986.37,9.2,76,14.38,0.0,1013.18,293.6
2019-09-14 04:40,50.63046,-96.9807766666667,5.3,6.6,258,986.51,9.0,78,14.38,0.0,1013.36,293.6
2019-09-14 04:50,50.63046,-96.9807766666667,5.4,7.0,256,986.61,9.0,78,14.37,0.0,1013.50,293.6
2019-09-14 05:00,50.63046,-96.9807766666667,5.5,6.7,253,986.57,8.7,78,14.36,0.0,1013.50,360.0
2019-09-14 05:10,50.63046,-96.9807766666667,5.5,6.5,250,986.53,8.6,78,14.36,0.0,1013.46,360.0
2019-09-14 05:20,50.63046,-96.9807766666667,5.0,5.9,255,986.49,8.8,77,14.36,0.0,1013.41,360.0
2019-09-14 05:30,50.6304583333333,-96.9807766666667,4.8,5.8,252,986.59,8.7,78,14.36,0.0,1013.53,360.0
2019-09-14 05:40,50.63045,-96.9807766666667,5.4,6.3,251,986.64,8.3,80,14.36,0.0,1013.61,360.0
2019-09-14 05:50,50.6304566666667,-96.9807766666667,5.5,6.5,252,986.66,8.0,82,14.35,0.0,1013.63,360.0
2019-09-14 06:00,50.6304566666667,-96.9807766666667,3.8,5.8,262,986.57,8.1,83,14.35,0.0,1013.53,360.0
2019-09-14 06:10,50.6304566666667,-96.9807783333333,5.1,5.9,265,986.59,8.1,82,14.34,0.0,1013.55,360.0
2019-09-14 06:20,50.630455,-96.9807783333333,5.2,6.1,255,986.74,8.2,82,14.33,0.0,1013.70,360.0
2019-09-14 06:30,50.630445,-96.9807833333333,5.0,6.2,258,986.71,8.1,82,14.32,0.0,1013.68,360.0
2019-09-14 06:40,50.6304466666667,-96.98078,4.6,5.5,260,986.74,8.2,83,14.31,0.0,1013.71,360.0
2019-09-14 06:50,50.6304483333333,-96.9807783333333,5.0,6.4,249,986.78,7.9,83,14.30,0.0,1013.78,360.0
2019-09-14 07:00,50.6304633333333,-96.980735,4.5,5.7,251,986.79,7.7,84,14.29,0.0,1013.81,75.8
2019-09-14 07:10,50.6304433333333,-96.9807783333333,4.4,5.3,250,986.83,7.6,85,14.28,0.0,1013.85,75.8
2019-09-14 07:20,50.6304566666667,-96.9807833333333,4.2,5.8,248,986.88,7.6,85,14.28,0.0,1013.90,75.8
2019-09-14 07:30,50.6304583333333,-96.980785,3.3,4.5,238,986.90,7.5,86,14.28,0.0,1013.94,75.8
2019-09-14 07:40,50.6304283333333,-96.9807716666667,4.2,5.6,226,986.90,7.2,88,14.28,0.0,1013.97,75.8
2019-09-14 07:50,50.6304483333333,-96.9807933333333,4.5,6.0,227,986.86,6.9,89,14.27,0.0,1013.94,75.8
2019-09-14 08:00,50.6304466666667,-96.980785,5.4,6.9,235,986.83,7.2,86,14.26,0.0,1013.90,216.6
2019-09-14 08:10,50.630445,-96.9807783333333,5.6,7.2,238,986.88,7.5,83,14.27,0.0,1013.92,216.6
2019-09-14 08:20,50.6304466666667,-96.98078,5.9,8.3,236,986.91,7.5,83,14.27,0.0,1013.96,216.6
2019-09-14 08:30,50.6304466666667,-96.9807783333333,4.5,5.8,234,986.91,7.3,84,14.27,0.0,1013.96,216.6
2019-09-14 08:40,50.6304466666667,-96.9807766666667,5.1,6.9,237,986.95,7.4,83,14.27,0.0,1014.01,216.6
2019-09-14 08:50,50.6304483333333,-96.9807866666667,4.9,6.5,234,987.03,7.2,84,14.27,0.0,1014.13,216.6
2019-09-14 09:00,50.63045,-96.98079,4.5,6.5,234,987.14,6.9,86,14.26,0.0,1014.25,270.0
2019-09-14 09:10,50.6304833333333,-96.9807483333333,4.0,5.4,234,987.15,6.8,86,14.26,0.0,1014.27,270.0
2019-09-14 09:20,50.6304666666667,-96.9807666666667,3.0,4.8,230,987.10,6.7,87,14.27,0.0,1014.23,270.0
2019-09-14 09:30,50.63042,-96.9808016666667,3.3,5.6,233,987.04,7.0,87,14.28,0.0,1014.17,270.0
2019-09-14 09:40,50.63044,-96.9807783333333,5.2,7.5,232,987.00,6.9,86,14.28,0.0,1014.15,270.0
2019-09-14 09:50,50.6304633333333,-96.98077,3.1,5.3,231,986.89,6.6,87,14.28,0.0,1014.03,270.0
2019-09-14 10:00,50.6304633333333,-96.9807733333333,2.2,3.5,235,986.85,6.7,87,14.28,0.0,1013.97,270.0
2019-09-14 10:10,50.63046,-96.9807633333333,3.2,5.3,232,986.86,6.9,86,14.27,0.0,1013.97,270.0
2019-09-14 10:20,50.6304583333333,-96.9807666666667,4.0,5.7,232,986.86,7.1,85,14.25,0.0,1013.98,270.0
2019-09-14 10:30,50.6304466666667,-96.9807566666667,3.2,4.7,226,986.76,7.3,84,14.24,0.0,1013.86,270.0
2019-09-14 10:40,50.6304533333333,-96.9807666666667,3.3,4.2,220,986.79,7.4,83,14.23,0.0,1013.89,270.0
2019-09-14 10:50,50.630455,-96.98077,2.5,3.8,220,986.74,7.2,85,14.22,0.0,1013.87,270.0
2019-09-14 11:00,50.6304533333333,-96.9807716666667,2.4,3.7,227,986.72,6.9,86,14.21,0.0,1013.86,60.8
2019-09-14 11:10,50.6304566666667,-96.9807716666667,2.8,3.5,223,986.80,6.6,88,14.18,0.0,1013.96,60.8
2019-09-14 11:20,50.6304583333333,-96.9807733333333,3.3,4.0,219,986.81,6.2,90,14.17,0.0,1013.98,60.8
2019-09-14 11:30,50.6304583333333,-96.9807733333333,2.7,3.7,212,986.86,5.9,92,14.17,0.0,1014.05,60.8
2019-09-14 11:40,50.6304583333333,-96.9807716666667,2.9,4.2,200,986.90,5.9,93,14.16,0.0,1014.11,60.8
2019-09-14 11:50,50.6304583333333,-96.9807733333333,2.1,3.1,182,986.88,6.3,95,14.14,0.0,1014.06,60.8
2019-09-14 12:00,50.63046,-96.9807733333333,2.8,4.1,154,986.81,6.7,94,14.13,0.0,1013.97,68.5
2019-09-14 12:10,50.6304433333333,-96.9807583333333,3.8,5.1,176,986.80,6.9,92,14.11,0.0,1013.93,68.5
2019-09-14 12:20,50.6304516666667,-96.980775,4.4,6.4,195,986.93,6.8,93,14.10,0.0,1014.06,68.5
2019-09-14 12:30,50.6304383333333,-96.98077,3.6,4.4,186,986.93,7.0,95,14.12,0.0,1014.04,68.5
2019-09-14 12:40,50.6304366666667,-96.98075,3.9,5.2,182,986.91,7.4,95,14.11,0.0,1014.01,68.5
2019-09-14 12:50,50.6304333333333,-96.9807616666667,5.3,6.3,178,986.87,7.4,96,14.09,0.0,1013.99,68.5
2019-09-14 13:00,50.6304333333333,-96.9807683333333,4.9,6.1,184,986.80,7.4,98,14.08,0.0,1013.94,360.0
2019-09-14 13:10,50.6304366666667,-96.9807933333333,5.5,7.3,185,986.91,7.8,99,14.07,0.0,1014.05,360.0
2019-09-14 13:20,50.6304333333333,-96.9807783333333,6.2,7.4,180,986.92,8.1,97,14.06,0.0,1014.05,360.0
2019-09-14 13:30,50.6304383333333,-96.9807733333333,4.6,5.9,167,986.74,8.2,97,14.05,0.0,1013.87,360.0
2019-09-14 13:40,50.63047,-96.980785,4.4,5.6,170,986.72,8.8,97,14.04,0.0,1013.79,360.0
2019-09-14 13:50,50.63043,-96.98077,4.6,6.2,175,986.74,9.6,95,14.02,0.0,1013.76,360.0
2019-09-14 14:00,50.630435,-96.9807866666667,5.3,6.1,189,986.89,10.1,92,14.01,0.0,1013.88,221.2
2019-09-14 14:10,50.6304383333333,-96.98079,4.6,5.9,191,986.93,10.3,91,13.99,0.0,1013.91,221.2
2019-09-14 14:20,50.6304366666667,-96.980775,4.2,5.6,178,986.94,10.7,92,13.97,0.0,1013.90,221.2
2019-09-14 14:30,50.6304383333333,-96.9807766666667,5.5,8.0,159,986.91,11.3,89,13.96,0.0,1013.82,221.2
2019-09-14 14:40,50.6304433333333,-96.98078,7.3,9.0,155,986.96,11.4,84,13.95,0.0,1013.86,221.2
2019-09-14 14:50,50.6304416666667,-96.9807816666667,8.2,10.2,152,986.99,11.5,85,13.95,0.0,1013.89,221.2
2019-09-14 15:00,50.630455,-96.9807883333333,8.2,10.1,153,986.99,11.4,87,13.96,0.0,1013.87,246.4
2019-09-14 15:10,50.6304533333333,-96.980795,9.1,11.9,154,986.92,11.5,85,13.97,0.0,1013.79,246.4
2019-09-14 15:20,50.630455,-96.9807916666667,9.2,12.1,154,986.84,11.7,83,13.99,0.0,1013.69,246.4
2019-09-14 15:30,50.6304533333333,-96.98079,9.9,12.0,153,986.82,11.9,81,14.01,0.0,1013.63,246.4
2019-09-14 15:40,50.6304566666667,-96.9807866666667,9.5,11.3,147,986.79,11.9,81,14.02,0.0,1013.56,246.4
2019-09-14 15:50,50.6304583333333,-96.980785,9.3,10.7,146,986.80,12.0,81,14.03,0.0,1013.54,246.4
2019-09-14 16:00,50.63046,-96.980785,9.3,11.2,145,986.88,12.1,81,14.06,0.0,1013.61,332.8
2019-09-14 16:10,50.6304516666667,-96.9808066666667,9.2,11.4,153,986.96,12.1,80,14.06,0.0,1013.67,332.8
2019-09-14 16:20,50.6304483333333,-96.98078,10.0,12.0,158,987.05,12.2,81,14.06,0.0,1013.72,332.8
2019-09-14 16:30,50.630455,-96.98078,9.4,11.1,158,986.99,12.4,83,14.07,0.0,1013.66,332.8
2019-09-14 16:40,50.6304483333333,-96.98078,9.7,11.8,152,986.77,12.6,84,14.07,0.0,1013.42,332.8
2019-09-14 16:50,50.6304516666667,-96.980785,9.8,11.6,152,986.66,12.9,85,14.07,0.0,1013.28,332.8
2019-09-14 17:00,50.63046,-96.9807733333333,10.1,11.3,144,986.49,13.2,84,14.10,0.0,1013.10,27.4
2019-09-14 17:10,50.63046,-96.9807783333333,10.4,12.0,138,986.26,13.7,82,14.10,0.0,1012.83,27.4
2019-09-14 17:20,50.6304616666667,-96.9807816666667,11.6,14.0,139,986.09,13.8,82,14.10,0.0,1012.63,27.4
2019-09-14 17:30,50.6304616666667,-96.9807916666667,9.8,12.4,134,985.97,14.3,81,14.11,0.0,1012.49,27.4
2019-09-14 17:40,50.63046,-96.980795,11.5,14.6,116,985.74,15.0,82,14.13,0.0,1012.22,27.4
2019-09-14 17:50,50.6304366666667,-96.98077,13.9,16.3,116,985.53,15.0,83,14.15,0.0,1012.00,27.4
2019-09-14 18:00,50.63045,-96.98077,13.1,17.6,127,985.41,15.2,79,14.19,0.0,1011.86,90.0
2019-09-14 18:10,50.63046,-96.98077,14.8,19.4,132,985.24,15.3,76,14.24,0.0,1011.68,90.0
2019-09-14 18:20,50.6304633333333,-96.980775,15.9,20.8,135,984.99,15.4,74,14.25,0.0,1011.42,90.0
2019-09-14 18:30,50.6304566666667,-96.9807816666667,16.8,19.8,139,984.85,15.2,73,14.26,0.0,1011.27,90.0
2019-09-14 18:40,50.6304583333333,-96.98078,14.2,16.4,146,984.96,15.0,73,14.27,0.0,1011.37,90.0
2019-09-14 18:50,50.6304566666667,-96.98078,14.0,16.6,143,984.87,14.9,74,14.29,0.0,1011.27,90.0
2019-09-14 19:00,50.6304583333333,-96.98078,13.4,17.6,138,984.66,15.0,74,14.31,0.0,1011.03,0.0
2019-09-14 19:10,50.6304566666667,-96.9807766666667,11.8,15.0,143,984.66,15.0,76,14.33,0.0,1011.03,0.0
2019-09-14 19:20,50.6304783333333,-96.9808083333333,9.2,13.1,154,984.76,15.0,77,14.34,0.0,1011.11,0.0
2019-09-14 19:30,50.63048,-96.9807883333333,7.7,10.1,158,984.80,15.0,78,14.35,0.0,1011.11,0.0
2019-09-14 19:40,50.6304733333333,-96.98078,7.8,10.8,154,984.80,15.1,78,14.37,0.0,1011.12,0.0
2019-09-14 19:50,50.630455,-96.9807666666667,7.3,9.9,159,984.82,15.5,76,14.39,0.0,1011.10,0.0
2019-09-14 20:00,50.630455,-96.9807733333333,8.3,12.0,161,984.83,15.6,73,14.39,0.0,1011.11,360.0
2019-09-14 20:10,50.6304516666667,-96.9807716666667,9.6,11.5,157,984.67,16.1,69,14.41,0.0,1010.92,360.0
2019-09-14 20:20,50.630455,-96.9807716666667,8.0,11.6,151,984.63,16.2,69,14.47,0.0,1010.88,360.0
2019-09-14 20:30,50.6304583333333,-96.980775,5.7,8.0,155,984.74,16.4,68,14.53,0.0,1010.99,360.0
2019-09-14 20:40,50.63047,-96.9807633333333,7.7,11.3,147,984.77,16.6,67,14.60,0.0,1011.01,360.0
2019-09-14 20:50,50.6304716666667,-96.9807716666667,12.8,15.8,145,984.55,16.9,63,14.63,0.0,1010.77,360.0
2019-09-14 21:00,50.63046,-96.9807683333333,15.3,18.1,147,984.41,17.1,61,14.64,0.0,1010.62,38.0
2019-09-14 21:10,50.6304633333333,-96.9807733333333,14.6,17.2,139,984.25,17.2,62,14.67,0.0,1010.45,38.0
2019-09-14 21:20,50.6304633333333,-96.9807733333333,14.1,16.8,139,984.15,17.4,61,14.69,0.0,1010.33,38.0
2019-09-14 21:30,50.6304616666667,-96.9807733333333,13.6,15.7,139,984.15,17.6,61,14.70,0.0,1010.32,38.0
2019-09-14 21:40,50.6304633333333,-96.9807733333333,12.3,13.9,141,984.17,17.5,62,14.70,0.0,1010.33,38.0
2019-09-14 21:50,50.6304633333333,-96.980775,12.4,14.2,143,984.12,17.4,64,14.69,0.0,1010.28,38.0
2019-09-14 22:00,50.6304616666667,-96.9807816666667,12.7,15.0,147,983.98,17.3,65,14.70,0.0,1010.12,360.0
2019-09-14 22:10,50.6304616666667,-96.980775,13.1,16.6,150,983.90,17.2,66,14.70,0.0,1010.03,360.0
2019-09-14 22:20,50.63046,-96.9807833333333,10.7,13.4,155,983.90,17.0,67,14.72,0.0,1010.03,360.0
2019-09-14 22:30,50.6304566666667,-96.9807833333333,11.5,14.4,157,983.93,16.9,67,14.76,0.0,1010.06,360.0
2019-09-14 22:40,50.6304566666667,-96.980785,11.8,15.2,156,983.90,17.1,63,14.79,0.0,1010.01,360.0
2019-09-14 22:50,50.6304566666667,-96.980785,12.4,15.2,162,983.84,17.3,60,14.80,0.0,1009.92,360.0
2019-09-14 23:00,50.6304583333333,-96.980785,13.2,15.8,168,983.86,17.6,58,14.81,0.0,1009.93,305.3
2019-09-14 23:10,50.6304583333333,-96.9807833333333,12.0,14.0,169,983.94,17.8,57,14.81,0.0,1010.00,305.3
2019-09-14 23:20,50.63044,-96.9808166666667,11.0,13.2,164,983.90,17.6,59,14.85,0.0,1009.95,305.3
2019-09-14 23:30,50.6304633333333,-96.9807633333333,9.7,12.1,159,983.82,17.1,63,14.88,0.0,1009.89,305.3
